Regional Weather Roundup
Issued by NWS

Home | Current Version | Previous Version | Graphics & Text | Print | Product List | Glossary Off
Versions: 1 2 3 4 5 6 7 8 9 10 11 12 13 14 15 16 17 18 19 20 21 22 23 24 25 26 27 28 29 30 31 32 33 34 35 36 37 38 39 40 41 42 43 44 45 46 47 48 49 50

000
ASUS43 KMPX 201501
RWRMN
WEATHER ROUNDUP FOR MINNESOTA
NATIONAL WEATHER SERVICE TWIN CITIES/CHANHASSEN MN
900 AM CST SAT DEC 20 2014


NOTE: "FAIR" INDICATES FEW OR NO CLOUDS BELOW 12,000 FEET WITH NO
SIGNIFICANT WEATHER AND/OR OBSTRUCTIONS TO VISIBILITY. N/A MEANS
CURRENT SKY AND/OR WEATHER CONDITIONS ARE NOT AVAILABLE.

MNZ060>063-068>070-201600-
   Twin Cities Metro

CITY           SKY/WX    TMP DP  RH WIND       PRES   REMARKS
TWIN CITIES    CLOUDY    30  26  85 SE7       30.15F FOG     WCI  23
ST PAUL        CLOUDY    30  27  88 SE8       30.17F FOG     WCI  22
CRYSTAL        CLOUDY    31  27  85 SE10      30.13F FOG     WCI  22
BLAINE         CLOUDY    32  30  93 SE7       30.14F FOG     WCI  26
LAKEVILLE      CLOUDY    28  27  93 S5        30.15S FOG     WCI  23
EDEN PRAIRIE   CLOUDY    31  27  85 S9        30.13F FOG     WCI  23
SOUTH ST PAUL  CLOUDY    31  28  88 SE5       30.16S FOG     WCI  26
LAKE ELMO      CLOUDY    30  28  93 SE6       30.17S FOG     WCI  24
$$
MNZ001>005-007-008-013>017-022>024-027-028-201600-
   Northwest Minnesota

CITY           SKY/WX    TMP DP  RH WIND       PRES   REMARKS
BEMIDJI          N/A     29  28  96 S6        30.01S FOG     WCI  23
HALLOCK        CLOUDY    28  27  93 CALM      30.00R FOG
ROSEAU         CLOUDY    30  25  80 S5        30.01R HAZE    WCI  25
WARROAD        CLOUDY    28  25  86 SE3       30.01S FOG
THIEF RVR FALL CLOUDY    28  28 100 S10       30.01S WCI  19
CROOKSTON      CLOUDY    28  28 100 SW10      30.03S FOG     WCI  19
FOSSTON        CLOUDY    27  27 100 S9        30.02R FOG     WCI  17
DETROIT LAKES  CLOUDY    30  30 100 S9        30.03S FOG     WCI  22
MOORHEAD       CLOUDY    30  30 100 S5        30.04S FOG     WCI  25
PARK RAPIDS    CLOUDY    29  28  96 S10       30.02S FOG     WCI  20
MAHNOMEN       CLOUDY    28  28  96 S10       30.01S FOG     WCI  19
$$
MNZ006-009>011-018-025>026-201600-
   North Central Minnesota

CITY           SKY/WX    TMP DP  RH WIND       PRES   REMARKS
BAUDETTE       CLOUDY    28  26  92 S6        30.01F FOG     WCI  22
FLAG ISLAND    FOG       27  27 100 S9        30.01R VSB 1   WCI  17
INTL FALLS     LGT SNOW  27  24  89 S5        30.05S FOG     WCI  22
WASKISH        CLOUDY    30  28  93 CALM      30.03S FOG
BIG FORK       FOG       28  27  93 SE5       30.05S VSB 3/4 WCI  23
LONGVILLE      FOG       30  28  93 S6        30.04S VSB 1   WCI  24
GRAND RAPIDS   CLOUDY    27  27 100 SE10      30.05S VSB 3/4 WCI  17
CRANE LAKE     LGT SNOW  25  25 100 CALM      30.10S
ORR            MIX PCPN  27  23  86 SE5       30.05S WCI  21
COOK           LGT SNOW  27  25  93 SE5       30.08S WCI  21
WALKER         CLOUDY    29  28  95 S8        30.03S FOG     WCI  21
$$
MNZ012-019>021-037-201600-
   Northeast Minnesota

CITY           SKY/WX    TMP DP  RH WIND       PRES   REMARKS
DULUTH         LGT SNOW  27  23  85 SE7       30.11S FOG     WCI  19
ELY            LGT SNOW  27  25  93 S5        30.08F WCI  21
HIBBING        CLOUDY    28  24  85 S8        30.08S FOG     WCI  20
EVELETH        LGT SNOW  27  27 100 S5        30.10S WCI  21
DULUTH HARBOR  CLOUDY    30  27  86 CALM      30.17S
TWO HARBORS    CLOUDY    30  25  80 S5        30.12F VSB 3/4 WCI  25
SILVER BAY     LGT SNOW  28  27  93 S5        30.12F WCI  23
GRAND MARAIS     N/A     32  27  81 SW7       30.17F WCI  26
G MARAIS ARPRT CLOUDY    25  21  86 CALM      30.12S FOG
$$
MNZ029>031-032-039>041-046>048-054>057-064-201600-
   West Central Minnesota

CITY           SKY/WX    TMP DP  RH WIND       PRES   REMARKS
FERGUS FALLS   CLOUDY    28  28 100 S13       30.07S FOG     WCI  18
WHEATON        CLOUDY    28  27  93 S8        30.07S FOG     WCI  20
MORRIS         PTCLDY    30  28  93 S13       30.05S FOG     WCI  20
ALEXANDRIA     CLOUDY    29  27  92 S14       30.06R FOG     WCI  18
ELBOW LAKE     CLOUDY    29  28  96 S12       30.04S FOG     WCI  19
WADENA         CLOUDY    27  27 100 S10       30.04S FOG     WCI  17
GLENWOOD       CLOUDY    30  28  93 S15       30.07R FOG     WCI  19
APPLETON       CLOUDY    32  28  86 S7        30.07S FOG     WCI  26
BENSON         CLOUDY    30  28  93 SW8       30.07S FOG     WCI  23
ORTONVILLE     CLOUDY    30  27  86 S7        30.05S FOG     WCI  23
MADISON        CLEAR     34  32  93 SW8       30.07R FOG     WCI  27
WILLMAR        CLOUDY    32  28  86 S3        30.10R FOG
$$
MNZ033>034-036-042>043-049>051-058-059-201600-
   Central Minnesota

CITY           SKY/WX    TMP DP  RH WIND       PRES   REMARKS
ST CLOUD       CLOUDY    32  28  85 S8        30.10S FOG     WCI  25
SAUK CENTRE    CLOUDY    29  28  94 S10       30.08R FOG     WCI  20
PAYNESVILLE    CLOUDY    28  26  94 SE9       30.09R FOG     WCI  19
AITKIN         HAZE      30  27  86 SE9       30.07S VSB 1   WCI  22
PINE RIVER     CLOUDY    28  28 100 S9        30.08S FOG     WCI  20
BRAINERD       CLOUDY    30  29  96 S13       30.07S FOG     WCI  20
STAPLES        CLOUDY    28  27  93 S9        30.05S FOG     WCI  20
LONG PRAIRIE   CLOUDY    28  28 100 S10       30.07S FOG     WCI  19
LITTLE FALLS   CLOUDY    30  28  93 S8        30.09S FOG     WCI  23
LITCHFIELD     CLOUDY    30  30 100 S3        30.10S
BUFFALO        CLOUDY    30  29  94 S5        30.13S FOG     WCI  25
MAPLE LAKE     CLOUDY    31  31  99 S7        30.11S FOG     WCI  25
$$
MNZ037-044-045-052-053-201600-
   East Central Minnesota

CITY           SKY/WX    TMP DP  RH WIND       PRES   REMARKS
PRINCETON      CLOUDY    30  28  93 SE8       30.12S FOG     WCI  23
MORA           CLOUDY    28  25  86 S7        30.14S WCI  21
CAMBRIDGE      CLOUDY    30  25  80 SE5       30.12S HAZE    WCI  25
RUSH CITY      CLOUDY    29  26  88 SE7       30.14F WCI  22
MOOSE LAKE     CLOUDY    28  27  93 S3        30.11S FOG
HINCKLEY       CLOUDY    30  28  93 CALM      30.13F FOG
CLOQUET        CLOUDY    27  25  93 SE6       30.11S FOG     WCI  20
MCGREGOR       CLOUDY    30  28  93 SE8       30.09S WCI  23
$$
MNZ071>073-080-081-089-090-097-098-201600-
   Southwest Minnesota

CITY           SKY/WX    TMP DP  RH WIND       PRES   REMARKS
MONTEVIDEO     CLOUDY    30  30 100 SW7       30.08S FOG     WCI  23
GRANITE FALLS  CLOUDY    31  28  90 S10       30.10R FOG     WCI  22
CANBY          CLOUDY    32  29  90 S7        30.07S FOG     WCI  25
MARSHALL       CLOUDY    30  27  86 SW12      30.08R WCI  21
REDWOOD FALLS  CLOUDY    31  28  89 S10       30.10R WCI  22
OLIVIA         CLOUDY    32  30  93 S10       30.09R WCI  24
PIPESTONE      CLOUDY    30  28  93 SW5       30.04R FOG     WCI  25
WINDOM         CLOUDY    30  28  93 CALM      30.09R FOG
WORTHINGTON    CLOUDY    28  27  93 S9        30.08S WCI  20
JACKSON        CLOUDY    30  28  93 S8        30.10S FOG     WCI  23
TRACY          CLOUDY    32  29  90 S9        30.08R FOG     WCI  24
SLAYTON        CLOUDY    30  30 100 S3        30.06S FOG
$$
MNZ065>067-074>077-082>085-091>093-201600-
   South Central Minnesota

CITY           SKY/WX    TMP DP  RH WIND       PRES   REMARKS
MANKATO        CLOUDY    30  25  80 S10       30.13S WCI  21
NEW ULM        CLOUDY    28  28 100 S9        30.11F WCI  20
ST JAMES       CLOUDY    30  28  93 SE7       30.13R WCI  23
FAIRMONT       CLOUDY    28  25  86 S9        30.12R WCI  20
GLENCOE        CLOUDY    32  31  97 S7        30.11S WCI  25
FARIBAULT      CLOUDY    30  28  93 SE8       30.14F FOG     WCI  23
OWATONNA       MIX PCPN  28  27  93 SE9       30.14F VSB 1   WCI  20
WASECA         CLOUDY    30  28  93 SE7       30.14F FOG     WCI  23
ALBERT LEA     FOG       28  28 100 SE8       30.13F VSB 3/4 WCI  20
$$
MNZ078>079-086>088-094>096-201600-
   Southeast Minnesota

CITY           SKY/WX    TMP DP  RH WIND       PRES   REMARKS
ROCHESTER      FOG       28  27  96 S9        30.16F VSB 1/4 WCI  19
RED WING       CLOUDY    30  27  86 SE6       30.18S FOG     WCI  24
STANTON        CLOUDY    31  28  86 S6        30.15S FOG     WCI  25
DODGE CENTER   FOG       28  28 100 S12       30.15S VSB 1/4 WCI  18
WINONA         CLOUDY    32  27  80 SE3       30.22S
AUSTIN         FOG       28  28 100 S5        30.15F VSB 1/4 WCI  23
PRESTON        FOG       27  26  97 S8        30.18S VSB 1   WCI  19
$$
ABBREVIATIONS USED IN REMARKS
   TC - TEMPERATURES IN CELSIUS
  WCI - WIND CHILL INDEX
   HX - HEAT INDEX
  VSB - VISIBILITY
$$


USA.gov is the U.S. government's official web portal to all federal, state and local government web resources and services.